[[{"header":{"parameterUnit":"m.s-1","parameterCategory":1,"la1":30.2991,"la2":30.254,"lo1":-89.0895,"lo2":-89.0444,"dy":0.0017,"dx":0.0017,"nx":28,"ny":28,"refTime":"2024-07-03T21:00:00:Z","depth":0,"parameterNumber":2,"parameterNumberName":"U-component_of_WINDS"},"data":[0,0,0,0,0,0,0,0,0,0,0,0,0,0,0,0,0,0,0,0,0,0,0,0,0,0,0,0,0,0,0,0,0,0,0,0,0,0,0,0,0,0,0,0,0,0,0,0,0,0,0,0,0,0,0,0,0,0,3.3287,3.3288,0,3.3388,3.3389,3.3391,3.3379,3.3378,3.3376,3.3374,3.3481,3.3485,3.349,0,0,0,0,0,0,0,0,0,0,0,0,0,3.3087,3.3091,3.3287,3.3288,3.329,3.3388,3.3389,3.3391,3.3379,3.3377,3.3376,3.3374,3.348,3.3485,3.349,0,0,0,0,0,0,0,0,0,0,0,0,0,3.318,3.3092,3.3287,3.3296,3.3297,3.3388,3.3389,3.3391,3.338,3.3377,3.3375,3.3373,3.3478,3.3484,3.3491,3.358,0,0,3.3511,3.3514,0,0,0,0,0,0,0,0,3.3175,3.3187,3.3293,3.3295,3.3297,3.3369,3.3358,3.3455,3.338,3.3349,3.3374,3.3372,3.3446,3.3455,3.3479,3.3585,3.3589,3.3511,3.3515,3.3518,3.352,0,0,0,0,0,0,0,3.3168,3.3183,3.3327,3.3295,3.3297,3.3296,3.3306,3.3376,3.341,3.3351,3.3351,3.3363,3.3447,3.3473,3.3482,3.3591,3.3511,3.3517,3.3521,3.3523,3.3775,3.3778,0,0,0,0,0,0,3.3159,3.3177,3.3324,3.333,3.3229,3.3301,3.3313,3.3348,3.3409,3.3416,3.3365,3.3362,3.3463,3.3474,3.3485,3.3594,3.3518,3.3524,3.3528,3.3773,3.3776,3.3779,0,0,0,0,0,0,3.3155,3.3172,3.332,3.3254,3.3272,3.3307,3.3347,3.3351,3.3378,3.3419,3.3425,3.3385,3.3462,3.3476,3.3556,3.3598,3.3527,3.3533,3.3769,3.3774,3.3777,3.3812,0,0,0,0,0,0,3.3149,3.3171,3.3204,3.3255,3.3276,3.3388,3.3349,3.3355,3.3389,3.3386,3.344,3.3447,3.3461,3.3547,3.3563,3.3605,3.3538,3.3766,3.3771,3.3776,3.3807,3.3817,3.3825,0,0,0,0,0,3.3142,3.321,3.3206,3.3224,3.3318,3.3391,3.3403,3.3417,3.3392,3.3427,3.3453,3.3445,3.359,3.3555,3.3573,3.3618,3.3763,3.377,3.3776,3.3803,3.3815,3.3825,0,0,0,0,0,0,3.3165,3.3217,3.3213,3.3299,3.334,3.3388,3.3432,3.3429,3.3478,3.3474,3.349,3.3502,3.3583,3.3609,3.3568,3.3708,3.3674,3.3684,3.3688,3.37,3.3708,3.3701,3.3544,0,0,0,0,0,3.318,3.3233,3.3276,3.3348,3.3369,3.3397,3.3429,3.3436,3.348,3.3498,3.353,3.3574,3.363,3.3666,3.3719,3.3811,3.3823,3.3851,3.3859,3.3866,3.3875,3.3926,3.394,3.3799,3.3799,3.3799,0,0,3.3211,3.3247,3.3279,3.3354,3.3387,3.3443,3.3412,3.3472,3.3515,3.3507,3.3585,3.361,3.366,3.3746,3.3786,3.377,3.3917,3.3874,3.388,3.3885,3.3934,3.3947,3.3959,3.3804,3.3803,3.3802,0,0,3.3298,3.3329,3.3393,3.3427,3.3476,3.3495,3.351,3.3559,3.3575,3.3653,3.3649,3.37,3.3795,3.3831,3.3862,3.3962,3.3957,3.3979,3.4025,3.4075,3.4086,3.4096,3.4132,3.4145,3.3988,3.3988,3.3988,0,3.3331,3.3414,3.3427,3.3488,3.3521,3.3516,3.3582,3.3614,3.3679,3.3703,3.3684,3.3803,3.3837,3.3932,3.3956,3.3981,3.4,3.3973,3.4083,3.4093,3.4103,3.4138,3.4151,3.399,3.399,3.399,3.3989,0,3.3454,3.3511,3.3557,3.3619,3.3658,3.3721,3.3744,3.3781,3.3785,3.3806,3.3886,3.3925,3.3987,3.401,3.4015,3.4106,3.4095,3.4079,3.4045,3.4118,3.4152,3.4165,3.3994,3.3993,3.3992,3.3991,0,0,3.3557,3.3625,3.3642,3.3671,3.3725,3.3771,3.3834,3.3893,3.3926,3.3971,3.4025,3.4106,3.4092,3.4127,3.4136,3.4179,3.4257,3.4159,3.416,3.4176,3.4361,3.4373,3.4388,3.4254,3.4256,3.4259,3.4357,0,3.365,3.3761,3.3774,3.3873,3.3927,3.3923,3.3979,3.4019,3.404,3.409,3.4113,3.4171,3.4148,3.4169,3.4211,3.4239,3.4295,3.4232,3.4306,3.4308,3.4294,3.4406,3.4418,3.4509,3.437,3.4373,3.4374,0,3.3772,3.382,3.3925,3.3972,3.3996,3.4045,3.4101,3.4148,3.4194,3.4206,3.4245,3.4248,3.4315,3.4278,3.437,3.4327,3.4358,3.4376,3.438,3.4388,3.4346,3.4417,3.4539,3.4553,3.4395,3.4393,3.4392,0,3.3839,3.3929,3.4004,3.4028,3.4085,3.412,3.4146,3.4189,3.4224,3.4273,3.4296,3.4353,3.4384,3.4428,3.4447,3.4418,3.4539,3.4503,3.4552,3.4552,3.4578,3.4576,3.4707,3.4597,3.4597,3.4597,3.4596,0,3.3941,3.4005,3.4034,3.408,3.4152,3.4167,3.4238,3.4263,3.4301,3.4353,3.4353,3.4401,3.4423,3.4475,3.449,3.4565,3.4579,3.4592,3.4595,3.4592,3.4591,3.4613,3.4608,3.46,3.46,3.4599,3.4598,0,3.4027,3.4049,3.413,3.4177,3.4191,3.4242,3.4283,3.4328,3.4348,3.4413,3.4429,3.4462,3.4523,3.4546,3.4621,3.4631,3.4718,3.4716,3.4702,3.4703,3.4751,3.4747,3.4901,3.4923,3.4798,3.4799,3.48,0,3.4091,3.4141,3.4193,3.4227,3.4254,3.4308,3.4344,3.4361,3.4398,3.4454,3.4492,3.4553,3.4603,3.4701,3.4732,3.479,3.4789,3.484,3.4798,3.4794,3.4791,3.4788,3.4793,3.4848,3.4849,3.485,3.4851,0,3.4203,3.4211,3.4262,3.4317,3.4359,3.4403,3.4446,3.4474,3.4498,3.454,3.4602,3.464,3.4716,3.4777,3.4836,3.4864,3.4862,3.4863,3.4878,3.4875,3.4866,3.4872,3.4724,3.486,3.4859,3.4858,3.4858,3.4857,3.4281,3.4325,3.4368,3.4425,3.4459,3.4499,3.4544,3.4569,3.4621,3.4684,3.4691,3.4758,3.4803,3.4882,3.4912,3.4966,3.4952,3.4973,3.4979,3.4984,3.4987,3.4857,3.4977,3.4976,3.4976,3.4976,3.4976,0,3.4393,3.4421,3.4473,3.4533,3.4578,3.457,3.4618,3.4656,3.4715,3.4756,3.4805,3.4877,3.4936,3.4971,3.5031,3.5067,3.5067,3.5082,3.508,3.5086,3.4996,3.4977,3.508,3.508,3.508,3.508,3.508,3.508,3.4457,3.4531,3.4544,3.4635,3.4663,3.4728,3.4755,3.4793,3.4826,3.4906,3.4955,3.4977,3.5017,3.5079,3.5133,3.5142,3.5165,3.518,3.5189,3.5103,3.5093,3.5082,3.5065,3.5185,3.5185,3.5275,3.5276,3.5276]},{"header":{"parameterUnit":"m.s-1","parameterCategory":1,"la1":30.2991,"la2":30.254,"lo1":-89.0895,"lo2":-89.0444,"dy":0.0017,"dx":0.0017,"nx":28,"ny":28,"refTime":"2024-07-03T21:00:00:Z","depth":0,"parameterNumber":3,"parameterNumberName":"V-component_of_WINDS"},"data":[0,0,0,0,0,0,0,0,0,0,0,0,0,0,0,0,0,0,0,0,0,0,0,0,0,0,0,0,0,0,0,0,0,0,0,0,0,0,0,0,0,0,0,0,0,0,0,0,0,0,0,0,0,0,0,0,0,0,0.8782,0.8783,0,0.8819,0.8819,0.882,0.8805,0.8804,0.8803,0.8802,0.8841,0.8842,0.8844,0,0,0,0,0,0,0,0,0,0,0,0,0,0.8699,0.8701,0.8782,0.8783,0.8783,0.8819,0.8819,0.882,0.8805,0.8804,0.8803,0.8802,0.884,0.8842,0.8844,0,0,0,0,0,0,0,0,0,0,0,0,0,0.8736,0.8702,0.8782,0.878,0.878,0.8819,0.8819,0.882,0.8805,0.8804,0.8803,0.8802,0.8839,0.8842,0.8845,0.8887,0,0,0.8853,0.8854,0,0,0,0,0,0,0,0,0.8734,0.8739,0.878,0.878,0.8781,0.8806,0.8804,0.8843,0.8806,0.8796,0.8802,0.8801,0.883,0.8834,0.8843,0.8889,0.8891,0.8853,0.8855,0.8856,0.8857,0,0,0,0,0,0,0,0.8731,0.8737,0.8797,0.878,0.8781,0.8777,0.8781,0.8811,0.882,0.8797,0.8796,0.88,0.883,0.8841,0.8844,0.8891,0.8853,0.8856,0.8857,0.8858,0.8973,0.8975,0,0,0,0,0,0,0.8729,0.8735,0.8795,0.8798,0.8753,0.878,0.8784,0.8799,0.8819,0.8821,0.8801,0.8799,0.8837,0.8841,0.8845,0.8896,0.8856,0.8859,0.886,0.8972,0.8974,0.8975,0,0,0,0,0,0,0.8727,0.8734,0.8794,0.8766,0.8774,0.8783,0.88,0.8801,0.8811,0.8823,0.8824,0.881,0.8836,0.8842,0.8877,0.8898,0.886,0.8862,0.897,0.8973,0.8974,0.8999,0,0,0,0,0,0,0.8725,0.8734,0.875,0.8767,0.8775,0.8825,0.8801,0.8802,0.8816,0.8814,0.8832,0.8834,0.8835,0.8873,0.888,0.8901,0.8864,0.8969,0.8971,0.8974,0.8996,0.9002,0.9006,0,0,0,0,0,0.8722,0.8756,0.8751,0.8758,0.8796,0.8826,0.8831,0.8832,0.8818,0.8834,0.8841,0.8833,0.8894,0.8877,0.8884,0.8906,0.8967,0.897,0.8974,0.8994,0.9001,0.9006,0,0,0,0,0,0,0.8742,0.8758,0.8753,0.8793,0.8808,0.8824,0.8845,0.8839,0.8858,0.8856,0.8856,0.886,0.8897,0.8905,0.8885,0.8948,0.8928,0.8933,0.8942,0.8948,0.8953,0.895,0.8867,0,0,0,0,0,0.8751,0.8774,0.8787,0.8821,0.8829,0.8835,0.8849,0.8848,0.8864,0.887,0.888,0.8896,0.8919,0.8934,0.8955,0.8997,0.9001,0.9016,0.9021,0.9025,0.9029,0.9052,0.9058,0.8986,0.8986,0.8986,0,0,0.877,0.8781,0.8796,0.8825,0.8837,0.8861,0.8841,0.8868,0.8885,0.8874,0.8908,0.8916,0.8934,0.8972,0.899,0.8981,0.905,0.9029,0.9032,0.9034,0.9056,0.9063,0.9069,0.8988,0.8987,0.8987,0,0,0.8816,0.8828,0.8857,0.8869,0.8887,0.8891,0.8898,0.8914,0.8919,0.8953,0.8945,0.8966,0.9005,0.9018,0.903,0.908,0.9073,0.9087,0.9113,0.9135,0.9141,0.9146,0.9164,0.917,0.9092,0.9092,0.9092,0,0.8838,0.8874,0.8873,0.89,0.8913,0.8904,0.8934,0.8946,0.897,0.8979,0.8968,0.9016,0.9027,0.9069,0.9081,0.9091,0.9099,0.9085,0.914,0.9145,0.915,0.9167,0.9174,0.9093,0.9093,0.9093,0.9093,0,0.8899,0.8924,0.8946,0.8969,0.8984,0.9013,0.9017,0.9032,0.903,0.9035,0.9069,0.9082,0.9106,0.9116,0.9114,0.9157,0.915,0.914,0.912,0.9158,0.9174,0.9181,0.9095,0.9095,0.9094,0.9094,0,0,0.896,0.8982,0.899,0.9,0.9019,0.9038,0.9066,0.9089,0.9102,0.9119,0.9142,0.9175,0.9165,0.9178,0.9177,0.9196,0.9235,0.9183,0.9184,0.9192,0.9283,0.9291,0.9299,0.9231,0.9232,0.9233,0.9281,0,0.9008,0.9057,0.9057,0.9102,0.9125,0.9116,0.914,0.9154,0.9159,0.9179,0.9185,0.9208,0.9193,0.9201,0.922,0.9227,0.9254,0.9223,0.9252,0.9253,0.9248,0.9307,0.9316,0.9361,0.9288,0.9289,0.929,0,0.9071,0.9089,0.9136,0.9151,0.9161,0.9182,0.9203,0.9222,0.9238,0.924,0.9255,0.9251,0.9279,0.9258,0.9296,0.9276,0.9288,0.9293,0.9294,0.9297,0.9274,0.9311,0.9375,0.9382,0.93,0.9299,0.9298,0,0.911,0.9147,0.918,0.9189,0.9207,0.9222,0.923,0.9245,0.9258,0.9276,0.9285,0.9306,0.9318,0.9334,0.9336,0.9321,0.9375,0.9354,0.9377,0.9377,0.9389,0.9389,0.9456,0.9397,0.9397,0.9397,0.9396,0,0.9164,0.9193,0.9197,0.9218,0.925,0.925,0.9281,0.9288,0.9301,0.9322,0.9316,0.9336,0.9337,0.9358,0.9359,0.9391,0.9396,0.9399,0.9399,0.9399,0.9399,0.9407,0.9404,0.9398,0.9398,0.9398,0.9397,0,0.9214,0.9218,0.9253,0.9267,0.9271,0.9294,0.9306,0.9325,0.933,0.9356,0.9363,0.937,0.9393,0.9397,0.9425,0.9426,0.9464,0.946,0.9458,0.9458,0.9481,0.9479,0.9556,0.9566,0.9501,0.9501,0.9502,0,0.9248,0.927,0.9286,0.93,0.9309,0.9331,0.9345,0.9345,0.936,0.9379,0.9395,0.9418,0.9437,0.9475,0.9483,0.9504,0.9501,0.9527,0.9504,0.9504,0.9501,0.95,0.9502,0.9531,0.9532,0.9532,0.9533,0,0.9308,0.9308,0.9328,0.9349,0.9365,0.9382,0.9397,0.9408,0.9411,0.9428,0.9452,0.9466,0.9494,0.9517,0.9538,0.9546,0.954,0.954,0.9546,0.9547,0.9545,0.9546,0.947,0.9538,0.9537,0.9537,0.9537,0.9537,0.935,0.9369,0.9384,0.9406,0.9418,0.9432,0.945,0.9457,0.9477,0.95,0.9499,0.9525,0.954,0.9567,0.9577,0.9597,0.9589,0.9598,0.9601,0.9603,0.9605,0.9541,0.9601,0.9601,0.9601,0.9601,0.9601,0,0.941,0.9418,0.9439,0.946,0.9478,0.947,0.9487,0.9502,0.9525,0.9539,0.9557,0.9584,0.9606,0.9615,0.9637,0.9652,0.9649,0.9657,0.9656,0.9658,0.9612,0.9604,0.9659,0.9659,0.9659,0.9659,0.9659,0.9659,0.9443,0.9474,0.9477,0.9514,0.9522,0.9548,0.9558,0.9571,0.9582,0.9613,0.9631,0.9637,0.9649,0.9671,0.969,0.9693,0.9701,0.971,0.9711,0.9667,0.9661,0.9656,0.9648,0.9712,0.9712,0.9755,0.9756,0.9756]}]]